Weather History for KFSM - April, 2014

Change the Weather History Date:

Tuesday, April 1, 2014

  Actual Average Record
Temperature  
Mean Temperature 67 °F 58 °F  
Max Temperature 80 °F 70 °F 92 °F (1946)
Min Temperature 54 °F 45 °F 26 °F (1954)
Degree Days  
Heating Degree Days 0 8  
Month to date heating degree days 0 8  
Since 1 July heating degree days 3397 3067  
Cooling Degree Days 2 1  
Month to date cooling degree days 2 1  
Year to date cooling degree days 2 13  
Growing Degree Days 17 (Base 50)    
Moisture  
Dew Point 56 °F    
Average Humidity 69    
Maximum Humidity 93    
Minimum Humidity 45    
Precipitation  
Precipitation 0.00 in 0.13 in 3.44 in (1988)
Month to date precipitation 0.00 0.13  
Year to date precipitation 5.62 9.55  
Sea Level Pressure  
Sea Level Pressure 29.96 in    
Wind  
Wind Speed 6 mph (ESE)    
Max Wind Speed 15 mph    
Max Gust Speed 18 mph    
Visibility 10 miles    
Events Thunderstorm    
T = Trace of Precipitation, MM = Missing Value Source: NWS Daily Summary

Daily Weather History Graph

Daily Weather History Graph

Search for Another Location

Airport or City:

Trip Planner

Search our weather history database for the weather conditions in past years. The results will help you decide how hot, cold, wet, or windy it might be!

Date:

Astronomy

Apr. 01, 2014 Rise Set
Actual Time 7:04 AM CDT 7:38 PM CDT
Civil Twilight 6:38 AM CDT 8:04 PM CDT
Nautical Twilight 6:08 AM CDT 8:34 PM CDT
Astronomical Twilight 5:37 AM CDT 9:05 PM CDT
Moon 8:11 AM CDT (4/1) 9:57 PM CDT (4/1)
Length of Visible Light 13h 26m
Length of Day
12h 34m
Waxing Crescent, 5% of the Moon is Illuminated
Apr 1
Waxing Crescent
Apr 7
First Quarter
Apr 15
Full
Apr 22
Last Quarter
Apr 29
New

Hourly Weather History & Observations

Time (CDT) Temp. Dew Point Humidity Pressure Visibility Wind Dir Wind Speed Gust Speed Precip Events Conditions
12:53 AM 57.0 °F 52.0 °F 83% 29.97 in 10.0 mi ENE 4.6 mph - N/A   Clear
1:53 AM 57.0 °F 53.1 °F 87% 29.98 in 10.0 mi East 3.5 mph - N/A   Clear
2:53 AM 57.0 °F 53.1 °F 87% 29.98 in 10.0 mi Calm Calm - N/A   Mostly Cloudy
3:00 AM 57.0 °F 53.1 °F 87% 29.98 in 10.0 mi ESE 3.5 mph - N/A Thunderstorm Overcast
3:44 AM 57.0 °F 53.1 °F 87% 29.98 in 10.0 mi ENE 6.9 mph - N/A   Overcast
3:53 AM 57.0 °F 53.1 °F 87% 29.98 in 10.0 mi NE 8.1 mph - N/A   Overcast
4:53 AM 57.9 °F 54.0 °F 87% 29.99 in 9.0 mi NNE 3.5 mph - N/A   Overcast
5:53 AM 57.9 °F 55.0 °F 90% 29.99 in 9.0 mi Calm Calm - N/A   Overcast
6:53 AM 57.9 °F 55.0 °F 90% 30.00 in 8.0 mi Calm Calm - N/A   Overcast
7:53 AM 57.9 °F 55.0 °F 90% 30.01 in 6.0 mi Calm Calm - N/A   Overcast
8:53 AM 59.0 °F 55.0 °F 87% 30.01 in 9.0 mi ENE 4.6 mph - N/A   Overcast
9:53 AM 61.0 °F 55.0 °F 81% 30.02 in 10.0 mi ENE 9.2 mph - N/A   Overcast
10:00 AM 61.0 °F 55.9 °F 83% 30.02 in 10.0 mi ENE 9.2 mph - N/A   Overcast
10:53 AM 62.1 °F 55.9 °F 80% 30.04 in 10.0 mi ENE 8.1 mph - N/A   Overcast
11:53 AM 64.9 °F 55.9 °F 73% 30.02 in 10.0 mi ESE 5.8 mph - N/A   Overcast
12:53 PM 70.0 °F 57.9 °F 65% 29.99 in 10.0 mi Variable 4.6 mph - N/A   Overcast
1:53 PM 71.1 °F 57.9 °F 63% 29.97 in 10.0 mi East 4.6 mph - N/A   Overcast
2:14 PM 73.9 °F 57.9 °F 57% 29.97 in 10.0 mi SSW 6.9 mph - N/A   Overcast
2:53 PM 75.0 °F 57.9 °F 55% 29.94 in 10.0 mi SSE 8.1 mph - N/A   Mostly Cloudy
3:53 PM 77.0 °F 57.0 °F 50% 29.91 in 10.0 mi SSE 8.1 mph - N/A   Scattered Clouds
4:53 PM 79.0 °F 55.9 °F 45% 29.89 in 10.0 mi South 8.1 mph - N/A   Mostly Cloudy
5:53 PM 77.0 °F 55.9 °F 48% 29.88 in 10.0 mi ESE 8.1 mph - N/A   Partly Cloudy
6:53 PM 77.0 °F 55.9 °F 48% 29.87 in 10.0 mi South 8.1 mph - N/A   Clear
7:53 PM 73.0 °F 55.9 °F 55% 29.87 in 10.0 mi SSE 5.8 mph - N/A   Clear
8:53 PM 71.1 °F 55.9 °F 59% 29.87 in 10.0 mi SSE 9.2 mph - N/A   Clear
9:53 PM 68.0 °F 57.0 °F 68% 29.88 in 10.0 mi SE 5.8 mph - N/A   Clear
10:53 PM 66.0 °F 57.9 °F 75% 29.89 in 10.0 mi ESE 5.8 mph - N/A   Clear
11:53 PM 64.0 °F 57.9 °F 80% 29.89 in 10.0 mi ENE 5.8 mph - N/A   Scattered Clouds